KANOPUS-V-IK 1 42825U 17042A 21111.77521315 .00000503 00000-0 26950-4 0 9996 2 42825 97.4490 21.4645 0001675 81.8117 3.3817 15.19444218209128 NORSAT 1 1 42826U 17042B 21111.60068149 .00000494 00000-0 54804-4 0 9998 2 42826 97.4806 344.1031 0014333 340.5829 19.4842 14.91322690205214 OBJECT C 1 42827U 17042C 21111.59464232 .00000726 00000-0 77488-4 0 9991 2 42827 97.4813 344.6351 0014526 340.0734 19.9916 14.91601417205198 NORSAT 2 1 42828U 17042D 21111.62332629 .00000462 00000-0 51022-4 0 9993 2 42828 97.4857 345.4682 0013844 341.7577 18.3144 14.91802169205247 TECHNOSAT 1 42829U 17042E 21111.68899638 .00000175 00000-0 22875-4 0 9993 2 42829 97.4775 344.2167 0013678 343.2606 16.8160 14.91258209205226 OBJECT F 1 42830U 17042F 21111.63463971 .00001003 00000-0 10212-3 0 9999 2 42830 97.4889 346.5736 0013543 336.3461 23.7134 14.92773246205327 FLYING LAPTOP 1 42831U 17042G 21111.32738302 .00000471 00000-0 52548-4 0 9996 2 42831 97.4798 344.0821 0013559 345.0120 15.0666 14.91274627205176 OBJECT H 1 42832U 17042H 21111.58930662 .00000488 00000-0 54009-4 0 9990 2 42832 97.4792 344.6476 0013281 341.0721 19.0003 14.91472483205234 OBJECT J 1 42833U 17042J 21111.67763614 .00000273 00000-0 32501-4 0 9997 2 42833 97.4791 344.8288 0013223 340.9155 19.1567 14.91528670205261 OBJECT K 1 42834U 17042K 21111.63227445 .00000249 00000-0 30137-4 0 9997 2 42834 97.4796 344.8139 0013006 345.1933 14.8904 14.91510382205248 WNISAT 1R 1 42835U 17042L 21111.61892927 .00000108 00000-0 16043-4 0 9993 2 42835 97.4774 344.4461 0012726 342.1727 17.9044 14.91359555205236 OBJECT M 1 42836U 17042M 21111.62213638 .00000194 00000-0 24656-4 0 9995 2 42836 97.4792 344.7262 0012735 345.2446 14.8400 14.91471995205258 LEMUR-2-GREENBERG 1 42837U 17042N 21111.58514280 .00000802 00000-0 83357-4 0 9997 2 42837 97.4844 346.3265 0012442 337.2474 22.8192 14.92441015205332 LEMUR-2-ANDIS 1 42838U 17042P 21111.58159883 .00000705 00000-0 73911-4 0 9999 2 42838 97.4838 346.3118 0012486 337.0009 23.0650 14.92439976205338 LEMUR-2-MONSON 1 42839U 17042Q 21111.61388279 .00000613 00000-0 65237-4 0 9997 2 42839 97.4843 346.1827 0012188 336.9985 23.0688 14.92252661205324 LEMUR-2-FURIAUS 1 42840U 17042R 21111.63436912 .00000207 00000-0 25399-4 0 9993 2 42840 97.4862 346.4707 0012474 337.3168 22.7499 14.92305412205333 LEMUR-2-PETERG 1 42841U 17042S 21111.61970904 .00000528 00000-0 56274-4 0 9998 2 42841 97.4882 347.0854 0011923 334.0943 25.9679 14.92709776205379 LEMUR-2-DEMBITZ 1 42842U 17042T 21111.61369653 .00000670 00000-0 70091-4 0 9993 2 42842 97.4868 347.0062 0012025 334.7058 25.3572 14.92693896205374 OBJECT U 1 42843U 17042U 21111.70778171 .00000171 00000-0 22156-4 0 9998 2 42843 97.4790 345.7067 0011980 336.2645 23.8020 14.91812827205329 NANOACE 1 42844U 17042V 21111.69982440 .00000367 00000-0 40858-4 0 9999 2 42844 97.4811 346.5333 0011506 328.7823 31.2713 14.92577915205371 LEMUR-2-ZACHARY 1 42845U 17042W 21111.59463923 .00001030 00000-0 10411-3 0 9998 2 42845 97.4785 346.4438 0012271 336.7874 23.2791 14.93002178205396 CORVUS BC2 1 42846U 17042X 21111.43747688 .00000176 00000-0 22358-4 0 9999 2 42846 97.4811 346.3505 0008936 338.7607 21.3240 14.92269271205330 CORVUS BC1 1 42847U 17042Y 21111.61330654 .00000305 00000-0 34994-4 0 9994 2 42847 97.4814 346.7447 0008555 337.2419 22.8420 14.92372206205367 OBJECT Z 1 42848U 17042Z 21111.62537956 .00000168 00000-0 21405-4 0 9990 2 42848 97.4826 347.4346 0007383 336.3893 23.6987 14.92662771205413 OBJECT AA 1 42849U 17042AA 21111.61491761 .00000346 00000-0 38692-4 0 9997 2 42849 97.4827 347.4543 0007442 338.6223 21.4685 14.92673619205371 FLOCK 2K-3 1 42850U 17042AB 21111.56575644 .00009921 00000-0 21043-3 0 9995 2 42850 96.8567 328.0120 0006904 289.6377 70.4128 15.45214663211619 FLOCK 2K-4 1 42851U 17042AC 21111.59015267 .00013542 00000-0 28867-3 0 9994 2 42851 96.8558 328.4862 0006788 291.8971 68.1557 15.44992618211658 FLOCK 2K-1 1 42852U 17042AD 21111.59119611 .00020329 00000-0 38556-3 0 9990 2 42852 96.8522 328.4685 0005694 285.3491 74.7132 15.48326758211655 FLOCK 2K-2 1 42853U 17042AE 21111.55114744 .00014180 00000-0 30174-3 0 9995 2 42853 96.8572 324.9541 0006917 301.2209 58.8363 15.45033508211392 FLOCK 2K-47 1 42854U 17042AF 21111.54370178 .00014790 00000-0 29961-3 0 9999 2 42854 96.8571 328.1872 0006135 287.5831 72.4749 15.46475668211628 FLOCK 2K-48 1 42855U 17042AG 21111.59369527 .00018862 00000-0 35133-3 0 9993 2 42855 96.8547 329.3480 0005663 282.8259 77.2360 15.48860835211715 FLOCK 2K-45 1 42856U 17042AH 21111.56953612 .00013718 00000-0 29135-3 0 9995 2 42856 96.8573 327.9855 0006586 288.1828 71.8705 15.45100119211612 FLOCK 2K-24 1 42857U 17042AJ 21111.56507419 .00018159 00000-0 32506-3 0 9996 2 42857 96.8537 329.9685 0005546 273.5316 86.5303 15.50004486211760 FLOCK 2K-46 1 42858U 17042AK 21111.57686040 .00014406 00000-0 26600-3 0 9995 2 42858 96.8545 329.9603 0005452 276.4922 83.5710 15.49166362211759 FLOCK 2K-23 1 42859U 17042AL 21111.57153197 .00017996 00000-0 35614-3 0 9990 2 42859 96.8551 328.4818 0006031 285.2539 74.8045 15.47116913211642 FLOCK 2K-21 1 42860U 17042AM 21111.56369872 .00013251 00000-0 28075-3 0 9993 2 42860 96.8587 328.1246 0006797 289.1448 70.9066 15.45177482211619 FLOCK 2K-22 1 42861U 17042AN 21111.59484254 .00028563 00000-0 44205-3 0 9994 2 42861 96.8530 332.5495 0005660 258.3814 101.6806 15.54001945211924 FLOCK 2K-7 1 42862U 17042AP 21111.55733765 .00007217 00000-0 15383-3 0 9993 2 42862 96.8578 328.1727 0006968 289.2370 70.8126 15.45165582211625 FLOCK 2K-8 1 42863U 17042AQ 21111.53863127 .00015858 00000-0 30761-3 0 9995 2 42863 96.8564 328.7510 0006168 285.5571 74.5000 15.47721335211663 FLOCK 2K-5 1 42864U 17042AR 21111.54348989 .00018499 00000-0 32176-3 0 9997 2 42864 96.8527 330.9688 0005238 270.6024 89.4629 15.50818565211825 FLOCK 2K-40 1 42865U 17042AS 21111.56065592 .00013119 00000-0 27810-3 0 9999 2 42865 96.8579 328.1606 0006834 290.2199 69.8316 15.45163857211619 FLOCK 2K-39 1 42866U 17042AT 21111.55408150 .00012953 00000-0 27456-3 0 9991 2 42866 96.8582 328.1434 0006781 290.1828 69.8692 15.45169453211617 FLOCK 2K-37 1 42867U 17042AU 21111.68021115 .00014203 00000-0 30073-3 0 9997 2 42867 96.8577 328.2339 0006795 290.4031 69.6489 15.45181010211638 FLOCK 2K-38 1 42868U 17042AV 21111.56978859 .00021002 00000-0 39108-3 0 9994 2 42868 96.8538 329.5347 0005965 276.6776 83.3797 15.48845985211725 FLOCK 2K-31 1 42869U 17042AW 21111.54426958 .00006736 00000-0 14389-3 0 9992 2 42869 96.8573 328.0759 0006739 283.9806 76.0694 15.45126140211616 FLOCK 2K-32 1 42870U 17042AX 21111.54096898 .00007469 00000-0 15928-3 0 9994 2 42870 96.8579 328.0850 0006486 286.3509 73.7027 15.45141406211618 FLOCK 2K-29 1 42871U 17042AY 21111.66766212 .00006420 00000-0 13709-3 0 9993 2 42871 96.8573 328.2380 0006836 282.8090 77.2396 15.45156242211632 FLOCK 2K-30 1 42872U 17042AZ 21111.53486736 .00006402 00000-0 13687-3 0 9995 2 42872 96.8586 328.1921 0006847 285.4427 74.6066 15.45122902211600 FLOCK 2K-44 1 42873U 17042BA 21111.53128390 .00007821 00000-0 16673-3 0 9999 2 42873 96.8574 328.0725 0007506 271.0269 89.0121 15.45129790211612 FLOCK 2K-43 1 42874U 17042BB 21111.55645811 .00008545 00000-0 22692-3 0 9996 2 42874 96.8617 321.8713 0010113 304.3600 55.6690 15.38446679211177 FLOCK 2K-41 1 42875U 17042BC 21111.57373405 .00014326 00000-0 30314-3 0 9990 2 42875 96.8582 328.2755 0007950 272.6997 87.3343 15.45189502211621 FLOCK 2K-36 1 42876U 17042BD 21111.57828559 .00018692 00000-0 33376-3 0 9997 2 42876 96.8522 330.2015 0006538 262.2705 97.7806 15.50064489211778 FLOCK 2K-35 1 42877U 17042BE 21111.59324600 .00006612 00000-0 14126-3 0 9999 2 42877 96.8580 328.2554 0007836 273.1029 86.9324 15.45122439211623 FLOCK 2K-34 1 42878U 17042BF 21111.55295078 .00017591 00000-0 32487-3 0 9990 2 42878 96.8533 329.5492 0006499 266.9460 93.1048 15.49112628211727 FLOCK 2K-33 1 42879U 17042BG 21111.59073936 .00022477 00000-0 34973-3 0 9993 2 42879 96.8479 333.1187 0006297 242.9331 117.1282 15.53893042211982 FLOCK 2K-28 1 42880U 17042BH 21111.57514396 .00009691 00000-0 22638-3 0 9991 2 42880 96.8594 323.2563 0008764 296.8827 63.1525 15.42330162211278 LEMUR-2-ARTFISCHER 1 42881U 17042BJ 21111.54973883 .00010323 00000-0 22338-3 0 9990 2 42881 96.8540 327.2159 0008324 281.7228 78.3088 15.44601576211549 FLOCK 2K-27 1 42882U 17042BK 21111.58145608 .00018643 00000-0 32531-3 0 9990 2 42882 96.8507 330.5396 0006109 260.7632 99.2930 15.50721368211804 FLOCK 2K-26 1 42883U 17042BL 21111.56365240 .00018959 00000-0 33837-3 0 9995 2 42883 96.8572 330.3184 0006905 263.7037 96.3430 15.50072174211779 FLOCK 2K-25 1 42884U 17042BM 21111.60112329 .00013712 00000-0 29143-3 0 9996 2 42884 96.8570 328.1725 0007672 275.1908 84.8466 15.45071053211624 FLOCK 2K-20 1 42885U 17042BN 21111.58825723 .00017831 00000-0 32677-3 0 9995 2 42885 96.8573 329.9448 0006913 264.2887 95.7577 15.49328235211749 FLOCK 2K-19 1 42886U 17042BP 21111.65479550 .00006699 00000-0 14309-3 0 9999 2 42886 96.8578 328.3142 0008202 274.1640 85.8672 15.45120768211630 FLOCK 2K-18 1 42887U 17042BQ 21111.58683708 .00014183 00000-0 30073-3 0 9997 2 42887 96.8579 328.2600 0008195 272.5129 87.5182 15.45128045211625 FLOCK 2K-17 1 42888U 17042BR 21111.58813357 .00018119 00000-0 32435-3 0 9990 2 42888 96.8518 330.2135 0006539 259.9932 100.0583 15.49997960211783 FLOCK 2K-16 1 42889U 17042BS 21111.59875238 .00017271 00000-0 34954-3 0 9994 2 42889 96.8569 328.4433 0007547 269.0715 90.9671 15.46459694211634 FLOCK 2K-15 1 42890U 17042BT 21111.58380433 .00007846 00000-0 16711-3 0 9991 2 42890 96.8580 328.3877 0008289 272.0493 87.9808 15.45149022211628 FLOCK 2K-13 1 42891U 17042BU 21111.57949200 .00023671 00000-0 39769-3 0 9996 2 42891 96.8551 331.6194 0005696 256.2715 103.7905 15.51748530211841 FLOCK 2K-14 1 42892U 17042BV 21111.58535566 .00015794 00000-0 29320-3 0 9993 2 42892 96.8570 329.9719 0006955 261.5162 98.5302 15.48983475211757 FLOCK 2K-12 1 42893U 17042BW 21111.57714566 .00006309 00000-0 13474-3 0 9997 2 42893 96.8578 328.3052 0008081 272.2696 87.7629 15.45145947211621 FLOCK 2K-11 1 42894U 17042BX 21111.56374908 .00013332 00000-0 26618-3 0 9997 2 42894 96.8560 328.5295 0007484 266.4695 93.5700 15.46911507211645 FLOCK 2K-10 1 42895U 17042BY 21111.64486695 .00014464 00000-0 30645-3 0 9996 2 42895 96.8573 328.2587 0008207 269.6226 90.4084 15.45148228211631 FLOCK 2K-9 1 42896U 17042BZ 21111.55776581 .00013321 00000-0 27161-3 0 9993 2 42896 96.8539 329.4835 0007768 263.4956 96.5411 15.46294336211898 FLOCK 2K-6 1 42897U 17042CA 21111.54758978 .00013749 00000-0 29126-3 0 9990 2 42897 96.8573 328.1093 0006733 289.1890 70.8631 15.45174642211617 FREGAT DEB 1 44608U 17042CB 21111.71878940 .00001159 00000-0 74090-4 0 9996 2 44608 97.5600 21.9569 0077881 167.7510 192.5636 15.08179620182317